Torna al catalogo

CZ-4 DEB

AttivoSSO
NORAD 20792·DEBRIS·🇨🇳 China

Lanciato Sep 3, 1990 da Taiyuan Satellite Launch Center

Loading…

Prossimi Passaggi (prossime 24 ore)

TLE

AggiornatoSource: Space-Track

Epoca: Sep 14, 2026, 10:31 UTC

1 20792U 90081E   26257.43885155  .00000490  00000-0  24872-3 0  9998
2 20792  98.7736 245.8251 0014983 133.3118 226.9310 14.20419634856112

Traccia CZ-4 DEB in tempo reale con AllMySat

Download on the App Store